Location: Franzen
(48.6167°N, 15.3833°E)
Time: 02:01:36
(UTC+00:00)

Transit 2A - Pass Details

Date: 06 August 2021
Orbit: 594 x 964 km, 66.7° (Epoch: 27 September)

Event Time Altitude Azimuth Distance (km) Brightness Sun altitude
Rises 09:20:33 0° 322° (NW) 3,103 8.8 51.6°
Reaches altitude 10° 09:24:19 10° 352° (N) 2,273 8.2 52.0°
Maximum altitude 09:26:33 13° 18° (NNE) 2,147 8.3 52.3°
Drops below altitude 10° 09:28:52 10° 43° (NE) 2,380 8.6 52.5°
Sets 09:33:02 0° 72° (ENE) 3,408 9.5 52.9°
